Retour au catalogue

SL-8 DEB

ActifPO
NORAD 29284·DEBRIS·🇷🇺 Russia

Lancé Dec 17, 1981 depuis Plesetsk Cosmodrome

Loading…

Prochains Passages (prochaines 24 heures)

TLE

FraisSource: Space-Track

Époque: Sep 14, 2026, 08:04 UTC

1 29284U 81120N   26257.33621734 -.00000052  00000-0 -73498-3 0  9991
2 29284  82.9540  89.2242 0035732 346.8790 188.5334 12.02519464557237

Suivez SL-8 DEB en temps réel avec AllMySat

Download on the App Store